This is the latest recevied weather packets stored in our database for station/object W0CHP-13. If no packets are shown the sender has not sent any weather packets the latest 10 day(s).
| Time | Temp. | Humidity | Pressure | Rain* | Wind** | Luminosity | Snow |
|---|---|---|---|---|---|---|---|
| 1777418419 | 15.56° C | 34% | 1011.5 hPa | 0 mm | - | 155 W/m² | - |
| 1777417817 | 15.56° C | 38% | 1011.3 hPa | 0 mm | - | 218 W/m² | - |
| 1777417217 | 15.56° C | 38% | 1011.6 hPa | 0 mm | - | 217 W/m² | - |
| 1777416617 | 16.11° C | 36% | 1011.5 hPa | 0 mm | - | 257 W/m² | - |
| 1777416016 | 16.11° C | 38% | 1011.4 hPa | 0 mm | - | 203 W/m² | - |
| 1777415418 | 16.11° C | 39% | 1011.3 hPa | 0 mm | - | 252 W/m² | - |
| 1777414816 | 16.67° C | 38% | 1011.3 hPa | 0 mm | - | 259 W/m² | - |
| 1777414219 | 16.67° C | 37% | 1011.6 hPa | 0 mm | - | 309 W/m² | - |
| 1777413617 | 16.67° C | 38% | 1011.6 hPa | 0 mm | - | 324 W/m² | - |
| 1777413015 | 16.67° C | 40% | 1011.6 hPa | 0 mm | - | 407 W/m² | - |
| 1777412417 | 16.67° C | 39% | 1011.5 hPa | 0 mm | - | 382 W/m² | - |
| 1777411816 | 16.67° C | 36% | 1011.6 hPa | 0 mm | - | 428 W/m² | - |
| 1777411218 | 16.67° C | 39% | 1012 hPa | 0 mm | - | 508 W/m² | - |
| 1777410616 | 16.67° C | 39% | 1012 hPa | 0 mm | - | 495 W/m² | - |
| 1777410018 | 16.67° C | 39% | 1012 hPa | 0 mm | - | 348 W/m² | - |
| 1777409417 | 16.67° C | 40% | 1012.3 hPa | 0 mm | - | 534 W/m² | - |
| 1777408815 | 17.22° C | 39% | 1012.3 hPa | 0 mm | - | 573 W/m² | - |
| 1777408217 | 17.22° C | 40% | 1012.3 hPa | 0 mm | - | 462 W/m² | - |
| 1777407616 | 17.22° C | 40% | 1012.3 hPa | 0 mm | - | 682 W/m² | - |
| 1777407018 | 17.22° C | 40% | 1012.3 hPa | 0 mm | - | 571 W/m² | - |
| 1777406417 | 17.22° C | 42% | 1012.3 hPa | 0 mm | - | 703 W/m² | - |
| 1777405818 | 16.67° C | 40% | 1012.8 hPa | 0 mm | - | 708 W/m² | - |
| 1777405217 | 16.67° C | 40% | 1012.4 hPa | 0 mm | - | 662 W/m² | - |
| 1777404615 | 16.11° C | 41% | 1012.5 hPa | 0 mm | - | 780 W/m² | - |
| 1777404017 | 16.11° C | 38% | 1012.3 hPa | 0 mm | - | 294 W/m² | - |
* Rain latest hour (hover to see other rain measurements)
** Current wind speed in m/s (hover to see current wind gust speed)